Home > Weather > Bloomington > Past weeks

Flag for USA Past Weather in Bloomington, Indiana, USA — Yesterday and Last 2 Weeks

Now
75 °F

Sunny.


Feels Like: 77 °F
Forecast: 65 / 85 °F
Wind: No wind

Location: Monroe County Airport

Current Time: May 31, 2016 at 9:42:51 PM

Latest Report: May 31, 2016 at 8:53 PM


Visibility: 10 mi

Pressure: 29.91 "Hg

Humidity: 69%

Dew Point: 64 °F

Location of BloomingtonLocation

Past Weather in Bloomington — Graph

°F

Bloomington Temperature Yesterday

Maximum temperature yesterday: 84 °F (at 1:53 PM)
Minimum temperature yesterday: 60 °F (at 5:53 AM)
Average temperature yesterday: 73 °F

High & Low Weather Summary for the Past Weeks

 TemperatureHumidityPressure
High86 °F (May 31, 2:53 PM)94% (May 27, 5:53 AM)30.21 "Hg (May 27, 5:53 AM)
Low40 °F (May 19, 6:53 AM)24% (May 23, 4:53 PM)29.89 "Hg (May 27, 6:53 PM)
Average66 °F67%30.04 "Hg
* Reported May 16 7:53 PM — May 31 7:53 PM, Bloomington, Weather by CustomWeather, © 2016

Note: Actual official high and low records may vary slightly from our data, if they occured in-between our weather recording intervals... More about our weather records

Advertising

Bloomington Weather History for the Previous 24 Hours

Scroll right to see more
 ConditionsComfort  
Time TempWeatherWind HumidityBarometerVisibility
7:53 PM
Tue, May 31
83 °FSunny.6 mph40%29.91 "Hg10 mi
6:53 PM85 °FSunny.5 mph35%29.90 "Hg10 mi
5:53 PM85 °FSunny.7 mph40%29.92 "Hg10 mi
4:53 PM84 °FSunny.10 mph43%29.92 "Hg10 mi
3:53 PM85 °FSunny.8 mph40%29.93 "Hg10 mi
2:53 PM86 °FSunny.7 mph40%29.96 "Hg10 mi
1:53 PM85 °FSunny.7 mph42%29.98 "Hg10 mi
12:53 PM82 °FSunny.6 mph49%29.98 "Hg10 mi
11:53 AM81 °FSunny.8 mph47%29.98 "Hg10 mi
10:53 AM78 °FSunny.5 mph62%29.98 "Hg10 mi
9:53 AM76 °FSunny.3 mph62%29.99 "Hg10 mi
8:53 AM72 °FSunny.3 mph71%29.99 "Hg10 mi
7:53 AM66 °FScattered clouds.No wind81%29.99 "Hg10 mi
6:53 AM64 °FPassing clouds.No wind81%29.97 "Hg10 mi
5:53 AM63 °FPassing clouds.No wind87%29.96 "Hg10 mi
4:53 AM63 °FClear.No wind87%29.96 "Hg10 mi
3:53 AM63 °FClear.No wind90%29.96 "Hg10 mi
2:53 AM64 °FClear.No wind87%29.95 "Hg10 mi
1:53 AM65 °FClear.No wind85%29.96 "Hg10 mi
12:53 AM65 °FClear.No wind87%29.97 "Hg10 mi
11:53 PM
Mon, May 30
66 °FClear.No wind84%29.97 "Hg10 mi
10:53 PM67 °FClear.No wind85%29.98 "Hg10 mi
9:53 PM69 °FSunny.No wind84%29.97 "Hg10 mi
Weather by CustomWeather, © 2016

See weather overviewHow to use our weather pages